[[{"header":{"parameterUnit":"m.s-1","parameterCategory":1,"la1":30.2991,"la2":30.254,"lo1":-89.0895,"lo2":-89.0444,"dy":0.0017,"dx":0.0017,"nx":28,"ny":28,"refTime":"2026-02-11T09:00:00:Z","depth":0,"parameterNumber":2,"parameterNumberName":"U-component_of_WINDS"},"data":[0,0,0,0,0,0,0,0,0,0,0,0,0,0,0,0,0,0,0,0,0,0,0,0,0,0,0,0,0,0,0,0,0,0,0,0,0,0,0,0,0,0,0,0,0,0,0,0,0,0,0,0,0,0,0,0,0,0,1.7737,1.7737,0,1.775,1.7751,1.7751,1.7764,1.7764,1.7765,1.7765,1.7779,1.7779,1.7779,0,0,0,0,0,0,0,0,0,0,0,0,0,1.7726,1.7726,1.7737,1.7737,1.7737,1.775,1.7751,1.7751,1.7764,1.7764,1.7765,1.7765,1.7779,1.7779,1.7779,0,0,0,0,0,0,0,0,0,0,0,0,0,1.7734,1.7726,1.7737,1.7746,1.7747,1.775,1.7751,1.7751,1.7764,1.7764,1.7765,1.7765,1.7779,1.7779,1.7779,1.7776,0,0,1.778,1.7781,0,0,0,0,0,0,0,0,1.7734,1.7735,1.7744,1.7745,1.7746,1.7756,1.7752,1.7759,1.7764,1.7757,1.7765,1.7765,1.7771,1.7772,1.7774,1.7777,1.7777,1.778,1.7781,1.7781,1.7781,0,0,0,0,0,0,0,1.7733,1.7734,1.7742,1.7744,1.7746,1.775,1.7751,1.7753,1.7763,1.7758,1.7759,1.776,1.7772,1.7774,1.7774,1.7777,1.778,1.7781,1.7781,1.7781,1.7781,1.7781,0,0,0,0,0,0,1.7731,1.7734,1.7742,1.7743,1.774,1.775,1.7751,1.7753,1.7763,1.7764,1.776,1.7761,1.7773,1.7774,1.7775,1.7773,1.7781,1.7781,1.7781,1.7781,1.7781,1.7781,0,0,0,0,0,0,1.7731,1.7732,1.7741,1.7739,1.774,1.775,1.7751,1.7753,1.7755,1.7764,1.7766,1.776,1.7773,1.7775,1.7776,1.7774,1.7781,1.7781,1.7781,1.7781,1.7781,1.7769,0,0,0,0,0,0,1.773,1.7731,1.7729,1.7738,1.774,1.7742,1.7751,1.7753,1.7755,1.7756,1.7765,1.7767,1.7774,1.7776,1.7777,1.7775,1.7782,1.7782,1.7781,1.7781,1.777,1.7768,1.7767,0,0,0,0,0,1.773,1.7725,1.7729,1.773,1.7738,1.7741,1.7743,1.775,1.7755,1.7754,1.776,1.7766,1.7774,1.7776,1.7777,1.7775,1.7782,1.7781,1.7781,1.777,1.7769,1.7767,0,0,0,0,0,0,1.7715,1.7726,1.7731,1.7729,1.7734,1.7744,1.7742,1.7748,1.7752,1.7753,1.7763,1.7765,1.7766,1.7771,1.7772,1.7774,1.7779,1.7779,1.7771,1.7769,1.7768,1.7767,1.7782,0,0,0,0,0,1.7712,1.7713,1.7723,1.772,1.7723,1.7732,1.7734,1.774,1.7746,1.7748,1.7755,1.7761,1.7765,1.7767,1.7771,1.7771,1.7774,1.777,1.7769,1.7768,1.7768,1.777,1.7769,1.7779,1.7779,1.7779,0,0,1.7704,1.7711,1.7711,1.7717,1.7722,1.7725,1.7734,1.7735,1.7738,1.7748,1.7751,1.7756,1.7764,1.7765,1.7766,1.7769,1.7766,1.7767,1.7767,1.7767,1.777,1.7769,1.7768,1.7779,1.7779,1.7779,0,0,1.7692,1.7697,1.7696,1.7701,1.7709,1.7715,1.7715,1.7724,1.7729,1.7731,1.774,1.7744,1.775,1.7756,1.7759,1.7753,1.7759,1.7754,1.7748,1.775,1.7749,1.7749,1.7748,1.7747,1.7754,1.7754,1.7754,0,1.7682,1.7686,1.7695,1.7697,1.77,1.7711,1.7711,1.7716,1.7724,1.7727,1.773,1.774,1.7746,1.775,1.7748,1.775,1.7752,1.7753,1.7749,1.7748,1.7748,1.7747,1.7746,1.7753,1.7753,1.7753,1.7753,0,1.7674,1.7677,1.7675,1.7684,1.7688,1.7688,1.7699,1.7701,1.7708,1.7714,1.7719,1.7726,1.7733,1.7734,1.774,1.774,1.7742,1.7746,1.7752,1.7746,1.7746,1.7745,1.7752,1.7752,1.7753,1.7753,0,0,1.7652,1.7667,1.7667,1.7672,1.7682,1.7685,1.7688,1.7695,1.7698,1.7704,1.7707,1.7714,1.7719,1.7723,1.773,1.7732,1.7729,1.7737,1.7737,1.7736,1.7731,1.7728,1.7727,1.7733,1.7733,1.7733,1.7731,0,1.7643,1.7647,1.7657,1.7659,1.7663,1.7674,1.7677,1.7684,1.7691,1.7696,1.7704,1.7709,1.7715,1.7718,1.772,1.7728,1.7728,1.7729,1.7738,1.7738,1.7736,1.7727,1.7723,1.772,1.7731,1.7731,1.7731,0,1.7632,1.7639,1.7641,1.7654,1.7656,1.7658,1.7667,1.7671,1.768,1.7685,1.7691,1.7699,1.7704,1.7709,1.7717,1.7717,1.7722,1.7727,1.7727,1.7728,1.7734,1.7729,1.7719,1.7719,1.773,1.773,1.773,0,1.7618,1.7627,1.7631,1.7635,1.7649,1.765,1.7656,1.7666,1.7671,1.7678,1.7682,1.769,1.7695,1.7701,1.7712,1.7714,1.7719,1.7725,1.7725,1.7725,1.7725,1.7725,1.7717,1.7727,1.7727,1.7727,1.7727,0,1.7607,1.7609,1.7625,1.7627,1.763,1.7641,1.7644,1.7651,1.766,1.7665,1.7675,1.768,1.7693,1.7699,1.7708,1.7714,1.7716,1.7721,1.7723,1.772,1.772,1.7723,1.7724,1.7727,1.7727,1.7727,1.7727,0,1.7591,1.7602,1.7607,1.762,1.7624,1.7626,1.7638,1.7641,1.765,1.7656,1.7658,1.7671,1.7679,1.7691,1.7702,1.7708,1.7713,1.7716,1.771,1.7712,1.7711,1.7712,1.7706,1.7706,1.7715,1.7715,1.7715,0,1.7584,1.7586,1.76,1.7604,1.761,1.7616,1.7621,1.7634,1.7639,1.7651,1.7653,1.7662,1.767,1.7683,1.7694,1.7704,1.7708,1.7705,1.7709,1.7707,1.7709,1.7709,1.771,1.7704,1.7704,1.7704,1.7704,0,1.7571,1.7577,1.7583,1.7593,1.7599,1.7607,1.7615,1.7618,1.7632,1.7637,1.7646,1.7653,1.7665,1.7675,1.7686,1.7693,1.7702,1.7703,1.7703,1.7701,1.7697,1.77,1.7708,1.7703,1.7703,1.7703,1.7703,1.7703,1.756,1.7563,1.7574,1.7582,1.759,1.7598,1.7603,1.7612,1.7619,1.7631,1.7638,1.7647,1.7658,1.7675,1.7682,1.769,1.7693,1.7693,1.7694,1.7694,1.7693,1.7696,1.7692,1.7692,1.7692,1.7692,1.7692,0,1.7549,1.7557,1.7564,1.7576,1.7583,1.759,1.76,1.7606,1.7613,1.7623,1.7631,1.7643,1.7653,1.7665,1.7676,1.768,1.7684,1.7683,1.7683,1.7685,1.7689,1.7688,1.768,1.768,1.768,1.768,1.768,1.768,1.7544,1.7549,1.7557,1.7567,1.7576,1.7585,1.759,1.7598,1.7607,1.7619,1.7627,1.7635,1.7647,1.7659,1.7669,1.7673,1.7677,1.7674,1.7679,1.7683,1.7684,1.7685,1.7684,1.7675,1.7675,1.7674,1.7674,1.7674]},{"header":{"parameterUnit":"m.s-1","parameterCategory":1,"la1":30.2991,"la2":30.254,"lo1":-89.0895,"lo2":-89.0444,"dy":0.0017,"dx":0.0017,"nx":28,"ny":28,"refTime":"2026-02-11T09:00:00:Z","depth":0,"parameterNumber":3,"parameterNumberName":"V-component_of_WINDS"},"data":[0,0,0,0,0,0,0,0,0,0,0,0,0,0,0,0,0,0,0,0,0,0,0,0,0,0,0,0,0,0,0,0,0,0,0,0,0,0,0,0,0,0,0,0,0,0,0,0,0,0,0,0,0,0,0,0,0,0,1.5238,1.5238,0,1.521,1.5209,1.5209,1.5191,1.5191,1.5191,1.5191,1.5159,1.5158,1.5157,0,0,0,0,0,0,0,0,0,0,0,0,0,1.5275,1.5274,1.5238,1.5238,1.5238,1.521,1.5209,1.5209,1.5191,1.5191,1.5191,1.5191,1.5159,1.5158,1.5157,0,0,0,0,0,0,0,0,0,0,0,0,0,1.5254,1.5274,1.5238,1.5226,1.5224,1.521,1.5209,1.5209,1.5191,1.5191,1.5191,1.5191,1.5159,1.5158,1.5157,1.5152,0,0,1.5153,1.5153,0,0,0,0,0,0,0,0,1.5255,1.5253,1.5228,1.5226,1.5225,1.5204,1.521,1.519,1.5191,1.5204,1.5191,1.5191,1.5174,1.5171,1.5166,1.5151,1.5149,1.5153,1.5152,1.5152,1.5152,0,0,0,0,0,0,0,1.5257,1.5254,1.5227,1.5227,1.5226,1.522,1.5217,1.5206,1.519,1.5203,1.5201,1.5198,1.5173,1.5167,1.5165,1.5149,1.5153,1.5152,1.5151,1.5151,1.5127,1.5127,0,0,0,0,0,0,1.5261,1.5255,1.5228,1.5226,1.524,1.522,1.5216,1.5211,1.519,1.5186,1.5198,1.5198,1.5169,1.5167,1.5164,1.5157,1.5152,1.5151,1.515,1.5127,1.5127,1.5127,0,0,0,0,0,0,1.5261,1.5258,1.5229,1.524,1.5236,1.5219,1.5213,1.521,1.5205,1.5187,1.5183,1.5196,1.5169,1.5166,1.5155,1.5155,1.515,1.5149,1.5127,1.5127,1.5127,1.5143,0,0,0,0,0,0,1.5263,1.5259,1.5257,1.524,1.5236,1.5222,1.5213,1.521,1.5203,1.5202,1.5183,1.518,1.5169,1.5157,1.5154,1.5154,1.5148,1.5127,1.5127,1.5127,1.5142,1.5144,1.5145,0,0,0,0,0,1.5264,1.5262,1.5257,1.5254,1.5234,1.5222,1.5219,1.5207,1.5203,1.5201,1.519,1.5181,1.5156,1.5156,1.5153,1.5152,1.5127,1.5127,1.5127,1.5142,1.5143,1.5145,0,0,0,0,0,0,1.5279,1.526,1.5254,1.5247,1.5237,1.5219,1.5216,1.5209,1.5198,1.5197,1.5181,1.5177,1.5168,1.5159,1.516,1.5146,1.514,1.514,1.5153,1.5154,1.5155,1.5157,1.5147,0,0,0,0,0,1.5282,1.5274,1.5258,1.5253,1.5248,1.5233,1.5228,1.5219,1.5207,1.5202,1.5189,1.5177,1.5166,1.5159,1.5149,1.5141,1.5136,1.5138,1.514,1.5141,1.514,1.5135,1.5136,1.5128,1.5128,1.5128,0,0,1.5287,1.5275,1.5272,1.5256,1.5247,1.5239,1.5229,1.5222,1.5215,1.52,1.519,1.518,1.5165,1.5156,1.5152,1.5148,1.5141,1.5141,1.5142,1.5141,1.5135,1.5136,1.5137,1.5128,1.5128,1.5128,0,0,1.5292,1.5283,1.5278,1.5269,1.5255,1.5246,1.5244,1.5228,1.5221,1.5211,1.52,1.5191,1.5174,1.5163,1.5156,1.5157,1.5149,1.5154,1.516,1.5155,1.5156,1.5156,1.5157,1.5157,1.5154,1.5154,1.5154,0,1.53,1.5289,1.5276,1.5269,1.5262,1.525,1.5244,1.5235,1.5219,1.5214,1.521,1.5188,1.5177,1.5165,1.5165,1.516,1.5157,1.5156,1.5157,1.5157,1.5157,1.5158,1.5158,1.5154,1.5154,1.5154,1.5154,0,1.5299,1.5291,1.5289,1.5274,1.5267,1.526,1.5246,1.524,1.5232,1.5223,1.5212,1.5198,1.5184,1.5181,1.5173,1.5168,1.5166,1.516,1.5154,1.5159,1.5159,1.5159,1.5156,1.5155,1.5155,1.5155,0,0,1.5313,1.5292,1.5291,1.5284,1.5268,1.5261,1.5254,1.5241,1.5237,1.5225,1.5218,1.5203,1.5198,1.5189,1.5179,1.5175,1.5177,1.5169,1.5169,1.5171,1.5171,1.5176,1.5176,1.5171,1.5171,1.5171,1.5172,0,1.5315,1.5303,1.5292,1.5284,1.5276,1.5263,1.5257,1.5246,1.5237,1.5228,1.5217,1.5207,1.52,1.5195,1.519,1.5178,1.5177,1.5178,1.5164,1.5164,1.5168,1.5176,1.5181,1.5183,1.5172,1.5172,1.5172,0,1.5317,1.5308,1.5299,1.5284,1.528,1.5275,1.5262,1.5255,1.5241,1.5235,1.5225,1.5215,1.5206,1.5201,1.5188,1.5189,1.5182,1.5175,1.5175,1.5173,1.5168,1.5174,1.5183,1.5183,1.5172,1.5172,1.5172,0,1.5329,1.5313,1.5306,1.53,1.5282,1.5279,1.5271,1.5258,1.5251,1.524,1.5235,1.5222,1.5215,1.5205,1.5192,1.5189,1.518,1.5174,1.5173,1.5174,1.5172,1.5172,1.518,1.5168,1.5168,1.5168,1.5168,0,1.5333,1.5328,1.5311,1.5306,1.53,1.5287,1.528,1.5271,1.526,1.5252,1.524,1.5233,1.5216,1.5207,1.5196,1.5186,1.5183,1.5177,1.5174,1.5178,1.5179,1.5174,1.5173,1.5168,1.5168,1.5168,1.5168,0,1.5344,1.5333,1.5324,1.5308,1.5304,1.53,1.5286,1.528,1.527,1.5261,1.5258,1.5242,1.523,1.5216,1.52,1.5192,1.5184,1.518,1.5189,1.5187,1.5188,1.5188,1.5192,1.5192,1.518,1.518,1.5181,0,1.5348,1.5344,1.5328,1.5323,1.5316,1.5308,1.5301,1.5287,1.5281,1.5265,1.5262,1.525,1.5239,1.5221,1.5207,1.5195,1.519,1.5192,1.5188,1.5192,1.519,1.5191,1.519,1.5193,1.5194,1.5194,1.5194,0,1.5356,1.5351,1.5342,1.5332,1.5324,1.5315,1.5305,1.5301,1.5285,1.5278,1.5267,1.5259,1.5243,1.5231,1.5216,1.5207,1.5198,1.5195,1.5195,1.5199,1.5205,1.5202,1.5192,1.5195,1.5195,1.5195,1.5195,1.5195,1.5364,1.536,1.5348,1.5339,1.533,1.5321,1.5316,1.5305,1.5296,1.5283,1.5275,1.5264,1.525,1.523,1.5221,1.5211,1.5208,1.5207,1.5207,1.5207,1.5208,1.5206,1.5209,1.5209,1.5208,1.5208,1.5208,0,1.5371,1.5363,1.5355,1.5342,1.5335,1.5328,1.5316,1.531,1.5301,1.529,1.528,1.5267,1.5255,1.5241,1.5228,1.5223,1.5218,1.522,1.522,1.5218,1.5212,1.5214,1.5224,1.5224,1.5224,1.5224,1.5224,1.5224,1.5374,1.5367,1.536,1.5348,1.534,1.533,1.5324,1.5315,1.5306,1.5293,1.5284,1.5275,1.5262,1.5248,1.5236,1.5232,1.5228,1.5231,1.5225,1.522,1.5218,1.5217,1.5219,1.523,1.523,1.5232,1.5232,1.5232]}]]